Location: Catacaguana
(10.4120°N, 66.7591°W)
Time: 05:22:18
(UTC+00:00)

NOSS 3-2 (A) - Pass Details

Date: 27 May 2022
Orbit: 756 x 1452 km, 63.4° (Epoch: 02 May)

Event Time Altitude Azimuth Distance (km) Brightness Sun altitude
Rises 00:22:28 0° 342° (NNW) 4,308 7.5 -22.8°
Reaches altitude 10° 00:25:16 10° 346° (NNW) 3,407 6.9 -23.4°
Maximum altitude 00:33:43 63° 66° (ENE) 1,575 4.3 -25.2°
Enters shadow 00:36:29 46° 124° (SE) 1,877 4.4 -25.8°
